Location: Cornospital
(48.0620°N, 3.3837°W)
Time: 19:42:55
(UTC+00:00)

USA 245 - Pass Details

Date: 17 June 2021
Orbit: 268 x 975 km, 97.9° (Epoch: 30 July)

Event Time Altitude Azimuth Distance (km) Brightness Sun altitude
Exits shadow 21:21:42 - 170° (S) 2,334 6.0 -8.7°
Reaches altitude 10° 21:22:11 10° 170° (S) 2,143 5.8 -8.8°
Maximum altitude 21:26:59 79° 257° (WSW) 816 4.2 -9.3°
Drops below altitude 10° 21:32:48 10° 345° (NNW) 2,581 8.0 -9.9°
Sets 21:35:25 0° 346° (NNW) 3,589 8.9 -10.1°
